This is the latest recevied weather packets stored in our database for station/object DF2AP-13. If no packets are shown the sender has not sent any weather packets the latest 10 day(s).
| Time | Temp. | Humidity | Pressure | Rain* | Wind** | Luminosity | Snow |
|---|---|---|---|---|---|---|---|
| 1777469274 | 15° C | 32% | 1028.8 hPa | - | - | - | - |
| 1777468675 | 15° C | 32% | 1028.8 hPa | - | - | - | - |
| 1777468074 | 14.44° C | 32% | 1028.8 hPa | - | - | - | - |
| 1777467474 | 15° C | 32% | 1028.7 hPa | - | - | - | - |
| 1777466875 | 15° C | 33% | 1028.7 hPa | - | - | - | - |
| 1777466274 | 15° C | 35% | 1028.7 hPa | - | - | - | - |
| 1777465675 | 15° C | 33% | 1028.7 hPa | - | - | - | - |
| 1777465075 | 15° C | 33% | 1028.7 hPa | - | - | - | - |
| 1777464474 | 15.56° C | 31% | 1028.7 hPa | - | - | - | - |
| 1777463874 | 15.56° C | 32% | 1028.6 hPa | - | - | - | - |
| 1777463275 | 15.56° C | 35% | 1028.7 hPa | - | - | - | - |
| 1777462674 | 16.11° C | 36% | 1028.7 hPa | - | - | - | - |
| 1777462075 | 14.44° C | 37% | 1028.9 hPa | - | - | - | - |
| 1777461474 | 14.44° C | 38% | 1028.8 hPa | - | - | - | - |
| 1777460875 | 13.89° C | 38% | 1028.8 hPa | - | - | - | - |
| 1777460275 | 13.89° C | 37% | 1028.8 hPa | - | - | - | - |
| 1777459675 | 13.89° C | 36% | 1029 hPa | - | - | - | - |
| 1777459074 | 13.33° C | 40% | 1028.9 hPa | - | - | - | - |
| 1777458475 | 13.89° C | 38% | 1028.9 hPa | - | - | - | - |
| 1777457874 | 13.89° C | 39% | 1029 hPa | - | - | - | - |
| 1777457275 | 13.89° C | 42% | 1029 hPa | - | - | - | - |
| 1777456675 | 13.33° C | 42% | 1029.1 hPa | - | - | - | - |
| 1777456075 | 12.78° C | 43% | 1028.9 hPa | - | - | - | - |
| 1777455475 | 12.78° C | 43% | 1029 hPa | - | - | - | - |
| 1777454875 | 12.78° C | 42% | 1029 hPa | - | - | - | - |
* Rain since midnight (hover to see other rain measurements)
** Current wind speed in m/s (hover to see current wind gust speed)